FW9473 Weather Reports


Display with metric or nautical units.
time (UTC)temp
F
wind
direction
speed
MPH
gust
MPH
rain 1hr
in
rain 24hr
in
rain mn
in
humidity
%
barometer
mb
20260505193046 79 245 5.0 16.0 0.00 0.00 0.00 39 1017.5
20260505191547 80 129 4.0 13.0 0.00 0.00 0.00 39 1018.1
20260505190049 79 0 3.0 12.0 0.00 0.00 0.00 39 1018.1
20260505184554 79 236 6.0 14.0 0.00 0.00 0.00 40 1018.3
20260505183059 78 211 5.0 12.0 0.00 0.00 0.00 41 1018.3
20260505181552 78 151 3.0 15.0 0.00 0.00 0.00 42 1018.5
20260505180056 78 265 3.0 11.0 0.00 0.00 0.00 41 1018.7
20260505174559 77 0 4.0 16.0 0.00 0.00 0.00 41 1019.2
20260505173054 77 218 4.0 13.0 0.00 0.00 0.00 39 1019.3
20260505171551 76 221 6.0 15.0 0.00 0.00 0.00 40 1019.6
20260505170057 76 224 6.0 15.0 0.00 0.00 0.00 41 1019.3
20260505164543 76 218 4.0 14.0 0.00 0.00 0.00 45 1019.3
20260505163055 75 0 0.0 11.0 0.00 0.00 0.00 48 1019.4
20260505161604 74 0 0.0 8.0 0.00 0.00 0.00 53 1019.7
20260505153059 70 0 3.0 9.0 0.00 0.00 0.00 60 1020.1
20260505151604 69 138 0.0 5.0 0.00 0.00 0.00 64 1020.2
20260505140110 64 0 0.0 4.0 0.00 0.00 0.00 70 1020.0
20260505124557 58 0 0.0 0.0 0.00 0.00 0.00 82 1019.5
20260505123100 56 0 0.0 0.0 0.00 0.00 0.00 84 1019.7
20260505121601 56 0 0.0 0.0 0.00 0.00 0.00 84 1019.4
20260505120057 53 0 0.0 0.0 0.00 0.00 0.00 87 1019.4
20260505114605 51 0 0.0 0.0 0.00 0.00 0.00 88 1019.2
20260505113113 50 0 0.0 0.0 0.00 0.00 0.00 90 1019.1
20260505111549 49 0 0.0 0.0 0.00 0.00 0.00 90 1018.8
20260505101553 48 0 0.0 0.0 0.00 0.00 0.00 89 1018.7
20260505100052 49 0 0.0 0.0 0.00 0.00 0.00 88 1018.4
20260505094551 50 0 0.0 0.0 0.00 0.00 0.00 87 1018.4
20260505093057 50 0 0.0 0.0 0.00 0.00 0.00 85 1018.5
20260505091603 51 0 0.0 1.0 0.00 0.00 0.00 83 1018.4
20260505090048 52 0 0.0 1.0 0.00 0.00 0.00 83 1018.3
20260505084552 51 0 0.0 0.0 0.00 0.00 0.00 84 1018.3
20260505083056 51 0 0.0 0.0 0.00 0.00 0.00 83 1018.1
20260505081604 52 0 0.0 0.0 0.00 0.00 0.00 81 1018.1
20260505080052 52 0 0.0 0.0 0.00 0.00 0.00 79 1018.2
20260505074549 54 0 0.0 0.0 0.00 0.00 0.00 77 1018.0
20260505073111 52 0 0.0 0.0 0.00 0.00 0.00 80 1018.1
20260505071600 53 0 0.0 0.0 0.00 0.00 0.00 79 1018.2
20260505064553 54 0 0.0 0.0 0.00 0.00 0.00 77 1018.0
20260505063055 55 0 0.0 0.0 0.00 0.00 0.00 74 1017.7
20260505061550 55 0 0.0 0.0 0.00 0.00 0.00 72 1018.0
20260505060051 55 0 0.0 0.0 0.00 0.00 0.00 73 1018.0
20260505054554 55 0 0.0 0.0 0.00 0.00 0.00 71 1017.9
20260505053056 55 0 0.0 0.0 0.00 0.00 0.00 72 1018.2
20260505051602 56 0 0.0 0.0 0.00 0.00 0.00 70 1018.2
20260505050104 56 0 0.0 0.0 0.00 0.00 0.00 72 1018.4
20260505041559 57 0 0.0 0.0 0.00 0.00 0.00 71 1018.3
20260505040051 58 0 0.0 0.0 0.00 0.00 0.00 71 1018.5
20260505034553 59 0 0.0 1.0 0.00 0.00 0.00 68 1018.5
20260505033043 60 0 0.0 0.0 0.00 0.00 0.00 65 1018.5
20260505031553 61 0 0.0 0.0 0.00 0.00 0.00 63 1018.4
20260505030045 61 0 0.0 0.0 0.00 0.00 0.00 62 1018.5
20260505024600 61 0 0.0 0.0 0.00 0.00 0.00 63 1018.5
20260505023054 61 0 0.0 0.0 0.00 0.00 0.00 64 1018.4
20260505021549 62 0 0.0 0.0 0.00 0.00 0.00 62 1018.3
20260505020049 62 0 0.0 0.0 0.00 0.00 0.00 62 1018.3
20260505014555 63 0 0.0 0.0 0.00 0.00 0.00 61 1018.1
20260505013111 64 0 0.0 0.0 0.00 0.00 0.00 60 1018.0
20260505011550 66 0 0.0 0.0 0.00 0.00 0.00 56 1017.8
20260505004552 66 0 0.0 0.0 0.00 0.00 0.00 58 1017.5
20260505003053 66 0 0.0 0.0 0.00 0.00 0.00 55 1017.5
20260505001548 68 0 0.0 0.0 0.00 0.00 0.00 54 1017.2
20260505000059 70 0 0.0 0.0 0.00 0.00 0.00 50 1017.4
20260504234551 71 0 0.0 1.0 0.00 0.00 0.00 47 1017.0
20260504233054 72 0 0.0 1.0 0.00 0.00 0.00 47 1017.1
20260504231552 73 0 0.0 3.0 0.00 0.00 0.00 42 1016.8
20260504230059 74 247 1.0 4.0 0.00 0.00 0.00 40 1016.9
20260504224549 74 0 0.0 3.0 0.00 0.00 0.00 38 1016.8
20260504223055 75 0 0.0 4.0 0.00 0.00 0.00 38 1017.0
20260504221548 76 247 3.0 10.0 0.00 0.00 0.00 37 1017.0
20260504220053 76 0 3.0 9.0 0.00 0.00 0.00 37 1017.1
20260504214552 76 251 4.0 10.0 0.00 0.00 0.00 34 1016.9
20260504213051 76 149 2.0 9.0 0.00 0.00 0.00 35 1017.0
20260504211555 77 0 1.0 8.0 0.00 0.00 0.00 36 1017.0
20260504210049 76 336 2.0 11.0 0.00 0.00 0.00 34 1016.8
20260504204555 77 231 0.0 10.0 0.00 0.00 0.00 32 1017.0
20260504203056 77 252 2.0 14.0 0.00 0.00 0.00 30 1017.2
20260504201601 77 127 5.0 14.0 0.00 0.00 0.00 29 1017.3
20260504200053 77 311 3.0 9.0 0.00 0.00 0.00 35 1017.4
20260504194550 77 205 1.0 8.0 0.00 0.00 0.00 36 1017.5